sat.trackr.live / text

‹ back to catalog

STARLINK-31886

NORAD 59662 · 2024-084J

PAYLOAD ACTIVE UNKNOWN

§ Identity

Operator
Country
US
Launch date
2024-05-06
Launch site
AFETR
Launch vehicle
Mass (kg)
RCS (m²)

Purposes: comms

External: N2YO · Heavens-Above · Gunter

§ Orbital elements

Epoch: 2026-05-24T21:06:43.322112Z

Period
94.27 min
Inclination
43.0001°
Eccentricity
0.0000645
Mean motion
15.27583530 rev/d
Perigee alt
482.6 km
Apogee alt
483.5 km
Semi-major
6,861.2 km
B*
-5.6897e-5
RAAN
331.6735°
Arg perigee
303.8632°
Mean anomaly
56.2158°
Rev number
11,602

§ Raw data

STARLINK-318861 59662U 24084J   26144.87966808 -.00001827  00000+0 -56897-4 0  99932 59662  43.0001 331.6735 0000645 303.8632  56.2158 15.27583530116022

JSON: /api/v1/satellites/59662 · /tle

For live sub-satellite position, see the globe view (requires WebGL).

§ Visibility from observer

Set your observer location to see the next 7 days of passes ≥ 10°. The values pass through the URL so the page stays shareable.

No JS? Fill the form by hand. The geolocation button needs JavaScript.